• In Hungary
  • List of Countries
  • For 7 days
  • Water Temperature
  • Satellite Maps
  • Weather Map
  • News
  • Weather Widgets
  • user-avatar
    Login

    Hourly Weather Novonikolskoe

    Today, 23 May, Wednesday

    Time Temperature Precipitation Wind Pressure Humidity
    00:00 +5°C° 0 mm 1 mps 737 mmHg 88%
    01:00 +5°C° 0 mm 1 mps 737 mmHg 89%
    02:00 +4°C° 0 mm 1 mps 737 mmHg 89%
    03:00 +4°C° 0 mm 1 mps 737 mmHg 90%
    04:00 +4°C° 0 mm 1 mps 737 mmHg 86%
    05:00 +5°C° 0 mm 1 mps 737 mmHg 82%
    06:00 +6°C° 0 mm 1 mps 737 mmHg 79%
    07:00 +7°C° 0 mm 1 mps 736 mmHg 73%
    08:00 +8°C° 0 mm 1 mps 736 mmHg 67%
    09:00 +7°C° 0 mm 2 mps 736 mmHg 60%
    10:00 +8°C° 0 mm 2 mps 736 mmHg 59%
    11:00 +8°C° 0 mm 2 mps 736 mmHg 57%
    12:00 +8°C° 0 mm 3 mps 736 mmHg 54%
    13:00 +9°C° 0 mm 3 mps 737 mmHg 52%
    14:00 +9°C° 0 mm 3 mps 737 mmHg 51%
    15:00 +10°C° 0 mm 3 mps 737 mmHg 49%
    16:00 +10°C° 0 mm 3 mps 737 mmHg 49%
    17:00 +10°C° 0 mm 3 mps 737 mmHg 48%
    18:00 +12°C° 0 mm 2 mps 738 mmHg 49%
    19:00 +9°C° 0.1 mm 3 mps 739 mmHg 57%
    20:00 +7°C° 0.1 mm 4 mps 739 mmHg 65%
    21:00 +5°C° 0.1 mm 5 mps 740 mmHg 73%
    22:00 +5°C° 0.1 mm 5 mps 740 mmHg 75%
    23:00 +3°C° 0.1 mm 5 mps 741 mmHg 77%

    Tomorrow, 24 May, Thursday

    Time Temperature Precipitation Wind Pressure Humidity
    00:00 +3°C° 0.1 mm 4 mps 741 mmHg 79%
    01:00 +3°C° 0.2 mm 4 mps 742 mmHg 80%
    02:00 +1°C° 0.2 mm 4 mps 742 mmHg 80%
    03:00 +1°C° 0.2 mm 4 mps 743 mmHg 80%
    04:00 0°C° 0.1 mm 4 mps 743 mmHg 80%
    05:00 0°C° 0.1 mm 4 mps 744 mmHg 80%
    06:00 0°C° 0.1 mm 4 mps 744 mmHg 79%
    07:00 +1°C° 0 mm 4 mps 745 mmHg 73%
    08:00 +3°C° 0 mm 4 mps 746 mmHg 66%
    09:00 +5°C° 0 mm 4 mps 746 mmHg 60%
    10:00 +6°C° 0.1 mm 4 mps 747 mmHg 55%
    11:00 +7°C° 0.1 mm 4 mps 747 mmHg 50%
    12:00 +7°C° 0.1 mm 4 mps 747 mmHg 45%
    13:00 +8°C° 0.1 mm 4 mps 748 mmHg 44%
    14:00 +8°C° 0.1 mm 4 mps 748 mmHg 42%
    15:00 +9°C° 0.1 mm 3 mps 748 mmHg 40%
    16:00 +9°C° 0 mm 3 mps 748 mmHg 41%
    17:00 +9°C° 0 mm 3 mps 748 mmHg 41%
    18:00 +9°C° 0 mm 3 mps 748 mmHg 42%
    19:00 +8°C° 0 mm 3 mps 748 mmHg 49%
    20:00 +5°C° 0 mm 3 mps 748 mmHg 56%
    21:00 +3°C° 0 mm 3 mps 748 mmHg 63%
    22:00 +3°C° 0 mm 4 mps 748 mmHg 65%
    23:00 +3°C° 0 mm 4 mps 747 mmHg 67%

    Day after tomorrow, 25 May, Friday

    Time Temperature Precipitation Wind Pressure Humidity
    00:00 +3°C° 0 mm 4 mps 747 mmHg 68%
    01:00 +3°C° 0 mm 4 mps 747 mmHg 71%
    02:00 +3°C° 0 mm 4 mps 746 mmHg 73%
    03:00 +2°C° 0 mm 5 mps 746 mmHg 75%
    04:00 +2°C° 0 mm 5 mps 745 mmHg 74%
    05:00 +3°C° 0 mm 6 mps 745 mmHg 72%
    06:00 +4°C° 0 mm 6 mps 744 mmHg 71%
    07:00 +5°C° 0.1 mm 6 mps 744 mmHg 72%
    08:00 +5°C° 0.1 mm 6 mps 743 mmHg 74%
    09:00 +7°C° 0.1 mm 6 mps 743 mmHg 75%
    10:00 +7°C° 0.4 mm 6 mps 743 mmHg 78%
    11:00 +5°C° 0.4 mm 6 mps 742 mmHg 81%
    12:00 +5°C° 0.4 mm 6 mps 742 mmHg 85%
    13:00 +6°C° 0.2 mm 5 mps 742 mmHg 86%
    14:00 +6°C° 0.2 mm 5 mps 743 mmHg 88%
    15:00 +7°C° 0.2 mm 4 mps 743 mmHg 90%
    16:00 +8°C° 0.1 mm 3 mps 743 mmHg 90%
    17:00 +9°C° 0.1 mm 3 mps 743 mmHg 90%
    18:00 +10°C° 0.1 mm 2 mps 743 mmHg 91%
    19:00 +9°C° 0.1 mm 2 mps 744 mmHg 93%
    20:00 +9°C° 0.1 mm 2 mps 744 mmHg 95%
    21:00 +8°C° 0.1 mm 2 mps 745 mmHg 97%
    22:00 +8°C° 0 mm 2 mps 745 mmHg 97%
    23:00 +7°C° 0 mm 2 mps 745 mmHg 97%

    26 May, Saturday

    Time Temperature Precipitation Wind Pressure Humidity
    00:00 +6°C° 0 mm 2 mps 745 mmHg 97%
    01:00 +6°C° 0 mm 2 mps 746 mmHg 97%
    02:00 +6°C° 0 mm 1 mps 746 mmHg 96%
    03:00 +5°C° 0 mm 1 mps 746 mmHg 96%
    04:00 +6°C° 0 mm 1 mps 746 mmHg 94%
    05:00 +5°C° 0 mm 2 mps 746 mmHg 92%
    06:00 +5°C° 0 mm 2 mps 746 mmHg 90%
    07:00 +6°C° 0 mm 2 mps 746 mmHg 85%
    08:00 +7°C° 0 mm 2 mps 746 mmHg 81%
    09:00 +7°C° 0 mm 3 mps 746 mmHg 76%
    10:00 +8°C° 0.1 mm 3 mps 746 mmHg 73%
    11:00 +8°C° 0.1 mm 3 mps 746 mmHg 70%
    12:00 +8°C° 0.1 mm 3 mps 746 mmHg 67%
    13:00 +8°C° 0.1 mm 3 mps 746 mmHg 69%
    14:00 +8°C° 0.1 mm 3 mps 746 mmHg 71%
    15:00 +7°C° 0.1 mm 2 mps 745 mmHg 73%
    16:00 +7°C° 0.5 mm 2 mps 745 mmHg 77%
    17:00 +6°C° 0.5 mm 2 mps 745 mmHg 81%
    18:00 +5°C° 0.5 mm 2 mps 745 mmHg 85%
    19:00 +5°C° 0.4 mm 2 mps 745 mmHg 86%
    20:00 +5°C° 0.4 mm 2 mps 745 mmHg 88%
    21:00 +4°C° 0.4 mm 2 mps 745 mmHg 89%
    22:00 +4°C° 0.1 mm 2 mps 745 mmHg 89%
    23:00 +3°C° 0.1 mm 3 mps 744 mmHg 89%

    27 May, Sunday

    Time Temperature Precipitation Wind Pressure Humidity
    00:00 +3°C° 0.1 mm 3 mps 744 mmHg 89%
    01:00 +3°C° 0.2 mm 3 mps 744 mmHg 89%
    02:00 +3°C° 0.2 mm 3 mps 744 mmHg 90%
    03:00 +3°C° 0.2 mm 3 mps 744 mmHg 90%
    04:00 +3°C° 0.6 mm 3 mps 744 mmHg 90%
    05:00 +3°C° 0.6 mm 3 mps 744 mmHg 90%
    06:00 +2°C° 0.6 mm 3 mps 745 mmHg 90%
    07:00 +3°C° 0.6 mm 3 mps 745 mmHg 88%
    08:00 +4°C° 0.6 mm 2 mps 746 mmHg 86%
    09:00 +5°C° 0.6 mm 2 mps 746 mmHg 83%
    10:00 +6°C° 0.2 mm 2 mps 747 mmHg 74%
    11:00 +8°C° 0.2 mm 2 mps 747 mmHg 64%
    12:00 +10°C° 0.2 mm 2 mps 748 mmHg 54%
    13:00 +12°C° 0 mm 2 mps 748 mmHg 48%
    14:00 +13°C° 0 mm 2 mps 748 mmHg 41%
    15:00 +14°C° 0 mm 1 mps 748 mmHg 35%
    16:00 +14°C° 0 mm 1 mps 748 mmHg 35%
    17:00 +14°C° 0 mm 1 mps 748 mmHg 35%
    18:00 +14°C° 0 mm 1 mps 748 mmHg 36%
    19:00 +12°C° 0 mm 1 mps 748 mmHg 44%
    20:00 +9°C° 0 mm 1 mps 748 mmHg 52%
    21:00 +7°C° 0 mm 1 mps 748 mmHg 60%
    22:00 +6°C° 0 mm 1 mps 748 mmHg 66%
    23:00 +4°C° 0 mm 2 mps 748 mmHg 73%

    28 May, Monday

    Time Temperature Precipitation Wind Pressure Humidity
    00:00 +4°C° 0 mm 2 mps 747 mmHg 79%
    01:00 +3°C° 0 mm 2 mps 747 mmHg 80%
    02:00 +3°C° 0 mm 2 mps 747 mmHg 80%
    03:00 +3°C° 0 mm 2 mps 746 mmHg 80%
    04:00 +3°C° 0 mm 3 mps 746 mmHg 74%
    05:00 +4°C° 0 mm 3 mps 745 mmHg 68%
    06:00 +5°C° 0 mm 4 mps 745 mmHg 62%
    07:00 +6°C° 0 mm 4 mps 744 mmHg 63%
    08:00 +7°C° 0 mm 4 mps 743 mmHg 63%
    09:00 +8°C° 0 mm 4 mps 742 mmHg 64%
    10:00 +8°C° 1.3 mm 4 mps 741 mmHg 69%
    11:00 +8°C° 1.3 mm 4 mps 740 mmHg 75%
    12:00 +8°C° 1.3 mm 4 mps 739 mmHg 81%
    13:00 +11°C° 0.4 mm 4 mps 738 mmHg 76%
    14:00 +13°C° 0.4 mm 4 mps 738 mmHg 71%
    15:00 +15°C° 0.4 mm 4 mps 737 mmHg 66%
    16:00 +15°C° 0.3 mm 4 mps 736 mmHg 71%
    17:00 +15°C° 0.3 mm 4 mps 735 mmHg 75%
    18:00 +15°C° 0.3 mm 4 mps 735 mmHg 79%
    19:00 +16°C° 0.4 mm 3 mps 734 mmHg 85%
    20:00 +14°C° 0.4 mm 3 mps 733 mmHg 90%
    21:00 +13°C° 0.4 mm 3 mps 733 mmHg 95%
    22:00 +14°C° 0 mm 3 mps 732 mmHg 93%
    23:00 +16°C° 0 mm 3 mps 732 mmHg 92%
    Show more